GLD1028 SBSN-SBBV

Flight info

Callsign GLD1028
Flight time N/A
Altitude 30000
Route MUMD1A MUNOP BUVIP
Aircraft B738/M-SDFGIRY/S

Departure

Time 2026-04-21 22:45
Airport Santarém - Maestro Wilson Fonseca International Airport (SBSN)

Arrival

Time N/A
Airport Atlas Brasil Cantanhede International Airport (SBBV)
Time Latitude Longitude Altitude Speed Heading
2026-04-21 22:38 -2.42346 -54.78384 190 ft 0 kts 188°
2026-04-21 22:39 -2.42342 -54.78384 190 ft 2 kts 188°
2026-04-21 22:39 -2.42330 -54.78382 204 ft 2 kts 188°
2026-04-21 22:40 -2.42317 -54.78380 202 ft 2 kts 188°
2026-04-21 22:40 -2.42308 -54.78378 201 ft 1 kts 161°
2026-04-21 22:40 -2.42304 -54.78378 198 ft 1 kts 102°
2026-04-21 22:40 -2.42304 -54.78379 190 ft 0 kts 96°
2026-04-21 22:42 -2.42304 -54.78375 190 ft 3 kts 96°
2026-04-21 22:42 -2.42303 -54.78324 190 ft 8 kts 62°
2026-04-21 22:42 -2.42257 -54.78289 190 ft 8 kts 28°
2026-04-21 22:42 -2.42206 -54.78265 196 ft 8 kts 24°
2026-04-21 22:43 -2.42184 -54.78255 200 ft 0 kts 24°
2026-04-21 22:43 -2.42146 -54.78238 199 ft 11 kts 25°
2026-04-21 22:44 -2.42068 -54.78217 190 ft 9 kts 337°
2026-04-21 22:44 -2.42064 -54.78231 198 ft 0 kts 255°
2026-04-21 22:44 -2.42090 -54.78355 193 ft 56 kts 261°
2026-04-21 22:44 -2.42203 -54.79039 201 ft 139 kts 260°
2026-04-21 22:45 -2.42372 -54.80138 672 ft 164 kts 262°
2026-04-21 22:45 -2.42542 -54.81227 1755 ft 155 kts 260°
2026-04-21 22:45 -2.42724 -54.82315 2446 ft 166 kts 260°
2026-04-21 22:45 -2.42717 -54.83574 2724 ft 199 kts 291°
2026-04-21 22:46 -2.41839 -54.84589 2955 ft 222 kts 333°
2026-04-21 22:46 -2.40990 -54.84882 3072 ft 234 kts 351°
2026-04-21 22:46 -2.39306 -54.85129 3365 ft 254 kts 353°
2026-04-21 22:46 -2.37519 -54.85385 4048 ft 261 kts 352°
2026-04-21 22:47 -2.35718 -54.85667 4893 ft 263 kts 351°
2026-04-21 22:47 -2.33891 -54.85979 5679 ft 267 kts 351°
2026-04-21 22:47 -2.32048 -54.86312 6447 ft 272 kts 350°
2026-04-21 22:47 -2.30185 -54.86665 7218 ft 275 kts 349°
2026-04-21 22:48 -2.28295 -54.87047 8033 ft 278 kts 345°
2026-04-21 22:48 -2.26625 -54.88022 8828 ft 283 kts 314°
2026-04-21 22:48 -2.25350 -54.89521 9703 ft 286 kts 309°
2026-04-21 22:48 -2.24090 -54.91096 10344 ft 298 kts 308°
2026-04-21 22:49 -2.22740 -54.92790 10550 ft 324 kts 309°
2026-04-21 22:49 -2.21314 -54.94567 11049 ft 337 kts 309°
2026-04-21 22:49 -2.19811 -54.96422 11794 ft 341 kts 309°
2026-04-21 22:49 -2.18322 -54.98244 12593 ft 344 kts 309°
2026-04-21 22:50 -2.16785 -55.00111 13397 ft 348 kts 310°
2026-04-21 22:50 -2.15233 -55.01987 14110 ft 353 kts 310°
2026-04-21 22:50 -2.13683 -55.03857 15066 ft 345 kts 310°
2026-04-21 22:50 -2.12164 -55.05686 16308 ft 334 kts 310°
2026-04-21 22:51 -2.10694 -55.07453 17329 ft 331 kts 310°
2026-04-21 22:51 -2.09222 -55.09220 18114 ft 335 kts 311°
2026-04-21 22:51 -2.07713 -55.11030 18742 ft 341 kts 311°
2026-04-21 22:51 -2.06190 -55.12857 19393 ft 345 kts 311°
2026-04-21 22:52 -2.04643 -55.14712 20070 ft 348 kts 311°
2026-04-21 22:52 -2.03086 -55.16579 20738 ft 352 kts 311°
2026-04-21 22:52 -2.01504 -55.18476 21400 ft 356 kts 311°
2026-04-21 22:52 -1.99912 -55.20386 22042 ft 360 kts 311°
2026-04-21 22:53 -1.98293 -55.22327 22696 ft 364 kts 311°
2026-04-21 22:53 -1.96666 -55.24277 23313 ft 368 kts 311°